TimeCDT,TemperatureF,Dew PointF,Humidity,Sea Level PressureIn,VisibilityMPH,Wind Direction,Wind SpeedMPH,Gust SpeedMPH,PrecipitationIn,Events,Conditions,WindDirDegrees,DateUTC
12:55 AM,53.6,44.6,72,29.99,10.0,South,12.7,-,N/A,,Overcast,170,2012-10-13 05:55:00
1:15 AM,53.6,44.6,72,29.98,10.0,South,12.7,-,N/A,,Overcast,170,2012-10-13 06:15:00
1:35 AM,53.6,44.6,72,29.97,10.0,South,10.4,-,N/A,,Overcast,170,2012-10-13 06:35:00
1:55 AM,53.6,46.4,77,29.95,10.0,South,9.2,-,N/A,,Overcast,170,2012-10-13 06:55:00
2:15 AM,53.6,46.4,77,29.94,10.0,South,6.9,-,N/A,,Overcast,170,2012-10-13 07:15:00
2:35 AM,53.6,46.4,77,29.93,10.0,SSE,8.1,-,N/A,,Overcast,160,2012-10-13 07:35:00
2:55 AM,53.6,46.4,77,29.92,10.0,South,5.8,-,N/A,,Overcast,170,2012-10-13 07:55:00
3:15 AM,53.6,48.2,82,29.92,10.0,South,8.1,-,N/A,,Overcast,180,2012-10-13 08:15:00
3:35 AM,53.6,48.2,82,29.90,10.0,South,10.4,-,N/A,,Overcast,170,2012-10-13 08:35:00
3:55 AM,53.6,48.2,82,29.89,10.0,South,11.5,-,N/A,,Overcast,170,2012-10-13 08:55:00
4:15 AM,53.6,50.0,88,29.88,10.0,South,11.5,-,N/A,,Overcast,170,2012-10-13 09:15:00
4:35 AM,53.6,50.0,88,29.87,10.0,SSE,9.2,-,N/A,,Overcast,160,2012-10-13 09:35:00
4:55 AM,53.6,50.0,88,29.85,10.0,SSE,11.5,-,N/A,,Overcast,150,2012-10-13 09:55:00
5:15 AM,55.4,51.8,88,29.84,9.0,SSE,10.4,-,N/A,,Overcast,160,2012-10-13 10:15:00
5:35 AM,55.4,53.6,94,29.90,9.0,SSW,10.4,-,N/A,,Overcast,210,2012-10-13 10:35:00
5:55 AM,57.2,55.4,94,29.87,4.0,South,15.0,-,0.02,,Overcast,190,2012-10-13 10:55:00
6:15 AM,55.4,55.4,100,29.85,3.0,South,10.4,18.4,N/A,Rain,Rain,190,2012-10-13 11:15:00
6:35 AM,57.2,55.4,94,29.84,5.0,SSW,10.4,-,N/A,Rain,Rain,200,2012-10-13 11:35:00
6:55 AM,59.0,57.2,94,29.83,10.0,SSW,13.8,-,0.09,,Overcast,200,2012-10-13 11:55:00
7:15 AM,59.0,57.2,94,29.80,10.0,South,11.5,-,N/A,,Overcast,180,2012-10-13 12:15:00
7:35 AM,59.0,57.2,94,29.80,10.0,South,16.1,-,N/A,,Mostly Cloudy,190,2012-10-13 12:35:00
7:55 AM,59.0,57.2,94,29.81,10.0,SSW,16.1,-,N/A,,Mostly Cloudy,200,2012-10-13 12:55:00
8:15 AM,59.0,57.2,94,29.81,10.0,South,18.4,24.2,N/A,,Mostly Cloudy,190,2012-10-13 13:15:00
8:55 AM,60.8,59.0,94,29.80,10.0,South,19.6,27.6,N/A,,Mostly Cloudy,180,2012-10-13 13:55:00
9:35 AM,60.8,60.8,100,29.79,6.0,South,23.0,-,N/A,,Overcast,180,2012-10-13 14:35:00
9:55 AM,62.6,60.8,94,29.77,6.0,South,19.6,-,N/A,,Overcast,180,2012-10-13 14:55:00
10:15 AM,62.6,60.8,94,29.77,6.0,South,23.0,-,N/A,,Mostly Cloudy,180,2012-10-13 15:15:00
10:35 AM,62.6,60.8,94,29.76,5.0,South,18.4,27.6,N/A,,Overcast,180,2012-10-13 15:35:00
10:55 AM,64.4,62.6,94,29.75,5.0,South,15.0,23.0,N/A,,Mostly Cloudy,180,2012-10-13 15:55:00
11:15 AM,66.2,62.6,88,29.74,8.0,South,18.4,-,N/A,,Mostly Cloudy,190,2012-10-13 16:15:00
11:35 AM,68.0,62.6,83,29.74,10.0,South,20.7,27.6,N/A,,Overcast,190,2012-10-13 16:35:00
11:55 AM,68.0,62.6,83,29.74,10.0,South,18.4,25.3,N/A,,Overcast,190,2012-10-13 16:55:00
12:35 PM,69.8,62.6,78,29.72,10.0,South,16.1,23.0,N/A,,Overcast,190,2012-10-13 17:35:00
12:55 PM,69.8,62.6,78,29.72,10.0,SSW,20.7,26.5,N/A,,Overcast,200,2012-10-13 17:55:00
1:15 PM,71.6,60.8,69,29.71,10.0,SSW,17.3,25.3,N/A,,Mostly Cloudy,210,2012-10-13 18:15:00
1:35 PM,69.8,60.8,73,29.70,10.0,SSW,18.4,26.5,N/A,,Overcast,210,2012-10-13 18:35:00
1:55 PM,71.6,60.8,69,29.69,10.0,SSW,18.4,-,N/A,,Overcast,210,2012-10-13 18:55:00
2:15 PM,71.6,60.8,69,29.68,10.0,SSW,12.7,25.3,N/A,,Overcast,210,2012-10-13 19:15:00
2:35 PM,71.6,59.0,64,29.68,10.0,SSW,23.0,-,N/A,,Overcast,210,2012-10-13 19:35:00
3:15 PM,75.2,60.8,61,29.68,10.0,SW,20.7,-,N/A,,Overcast,230,2012-10-13 20:15:00
3:35 PM,73.4,60.8,65,29.68,10.0,SW,21.9,-,N/A,,Overcast,230,2012-10-13 20:35:00
3:55 PM,71.6,60.8,69,29.68,10.0,SW,16.1,26.5,N/A,,Overcast,230,2012-10-13 20:55:00
4:15 PM,71.6,60.8,69,29.68,10.0,SW,16.1,-,N/A,,Overcast,220,2012-10-13 21:15:00
4:35 PM,71.6,60.8,69,29.67,10.0,SW,15.0,20.7,N/A,,Mostly Cloudy,220,2012-10-13 21:35:00
4:55 PM,71.6,60.8,69,29.67,10.0,SW,12.7,18.4,N/A,,Overcast,230,2012-10-13 21:55:00
5:15 PM,71.6,60.8,69,29.67,10.0,SSW,13.8,-,N/A,,Overcast,210,2012-10-13 22:15:00
5:35 PM,71.6,62.6,73,29.67,10.0,SSW,10.4,17.3,N/A,,Mostly Cloudy,200,2012-10-13 22:35:00
5:55 PM,69.8,62.6,78,29.67,10.0,SSW,10.4,16.1,N/A,,Mostly Cloudy,210,2012-10-13 22:55:00
6:15 PM,69.8,62.6,78,29.66,10.0,SSW,9.2,-,N/A,,Scattered Clouds,210,2012-10-13 23:15:00
6:35 PM,69.8,62.6,78,29.67,10.0,South,6.9,-,N/A,,Mostly Cloudy,190,2012-10-13 23:35:00
6:55 PM,69.8,62.6,78,29.67,10.0,South,8.1,-,N/A,,Overcast,180,2012-10-13 23:55:00
7:35 PM,68.0,62.6,83,29.65,10.0,South,11.5,-,N/A,,Scattered Clouds,180,2012-10-14 00:35:00
7:55 PM,68.0,64.4,88,29.66,10.0,South,10.4,-,N/A,,Mostly Cloudy,180,2012-10-14 00:55:00
8:55 PM,66.2,62.6,88,29.67,9.0,SW,3.5,-,N/A,,Overcast,220,2012-10-14 01:55:00
9:15 PM,64.4,62.6,94,29.66,9.0,SSE,4.6,-,N/A,,Overcast,150,2012-10-14 02:15:00
9:35 PM,64.4,62.6,94,29.66,7.0,ESE,6.9,-,N/A,,Overcast,120,2012-10-14 02:35:00
9:55 PM,66.2,64.4,94,29.67,10.0,SSE,6.9,-,N/A,,Overcast,150,2012-10-14 02:55:00
10:15 PM,66.2,62.6,88,29.67,10.0,SSW,5.8,-,N/A,,Overcast,200,2012-10-14 03:15:00
11:15 PM,64.4,62.6,94,29.63,6.0,Calm,Calm,-,N/A,,Overcast,0,2012-10-14 04:15:00
11:35 PM,62.6,62.6,100,29.62,4.0,Calm,Calm,-,N/A,,Scattered Clouds,0,2012-10-14 04:35:00